Hourly Data Report for October 02, 2017

All times are specified in Local Standard Time (LST). Add 1 hour to adjust for Daylight Saving Time where and when it is observed.

QIKIQTARJUAQ A
NUNAVUT

67°32'48.000" N
64°01'54.000" W
5.50 m
2400577
YVM

Download Data

Hourly Data (October 2017)
Hourly Data Report for October 2, 2017
Temp Definition
°C
Dew Point Temp Definition
°C
Rel Hum Definition
%
Wind Dir Definition
10's deg

Wind Spd Definition
km/h
Visibility Definition
km
Stn Press Definition
kPa
Hmdx Definition


Wind Chill Definition


Weather Definition


TIME
00:00 Legend Double Dagger 0.5 -2.9 78 LegendMM 4 16.1 101.20     LegendNANA
01:00 Legend Double Dagger 0.3 -2.9 79 2 18 16.1 101.23     LegendNANA
02:00 Legend Double Dagger 0.2 -2.1 85 36 18 16.1 101.25     LegendNANA
03:00 Legend Double Dagger -2.5 -4.3 88 10 5 16.1 101.25   -4 LegendNANA
04:00 Legend Double Dagger -0.8 -3.2 84 25 8 16.1 101.26   -4 LegendNANA
05:00 Legend Double Dagger -1.6 -4.1 83 20 13 16.1 101.25   -6 LegendNANA
06:00 Legend Double Dagger -1.7 -4.1 84 21 9 16.1 101.23   -5 LegendNANA
07:00 Legend Double Dagger -1.5 -3.9 84 14 8 16.1 101.23   -5 LegendNANA
08:00 Legend Double Dagger -1.4 -3.3 87 20 8 16.1 101.23   -4 LegendNANA
09:00 Legend Double Dagger -1.2 -4.0 81 20 9 16.1 101.17   -4 LegendNANA
10:00 Legend Double Dagger -0.9 -4.1 79 20 11 16.1 101.11   -5 LegendNANA
11:00 Legend Double Dagger -0.6 -4.4 76 20 11 16.1 101.06   -4 LegendNANA
12:00 Legend Double Dagger -0.3 -3.7 78 24 5 16.1 101.04   -2 LegendNANA
13:00 Legend Double Dagger -0.1 -3.1 80 36 5 16.1 101.06   -2 LegendNANA
14:00 Legend Double Dagger -0.2 -3.1 81   0 16.1 101.03     LegendNANA
15:00 Legend Double Dagger -0.1 -3.0 81 LegendMM 4 16.1 101.04   -1 LegendNANA
16:00 Legend Double Dagger -0.2 -3.2 80   0 16.1 101.02     LegendNANA
17:00 Legend Double Dagger -0.8 -2.4 89 22 11 4.8 100.99   -5 Snow
18:00 Legend Double Dagger -1.1 -1.5 97 22 5 2.0 100.94   -3 Snow
19:00 Legend Double Dagger -1.3 -1.4 99 21 5 3.2 100.89   -3 Snow
20:00 Legend Double Dagger -1.3 -1.6 98 20 9 16.1 100.80   -5 Snow
21:00 Legend Double Dagger -0.9 -1.3 97 22 11 16.1 100.70   -5 LegendNANA
22:00 Legend Double Dagger -0.8 -1.5 95 21 13 16.1 100.59   -5 LegendNANA
23:00 Legend Double Dagger -0.4 -1.4 93   0 16.1 100.48     LegendNANA

Notes on Data Quality.

Legend

  • E = Estimated
  • M = Missing
  • NA = Not Available
  • ‡ = Partner data that is not subject to review by the National Climate Archives
Date modified: